Regional Weather Roundup
Issued by NWS

Home | Current Version | Previous Version | Text Only | Print | Product List | Glossary On
Versions: 1 2 3 4 5 6 7 8 9 10 11 12 13 14 15 16 17 18 19 20 21 22 23 24 25 26 27 28 29 30 31 32 33 34 35 36 37 38 39 40 41 42 43 44 45 46 47 48 49 50
000
ASUS43 KMKX 061700
RWRWI

WISCONSIN REGIONAL WEATHER ROUNDUP
NATIONAL WEATHER SERVICE MILWAUKEE/SULLIVAN WI
1100 AM CST SAT FEB 06 2016

NOTE: "FAIR" INDICATES FEW OR NO CLOUDS BELOW 12,000 FEET WITH NO
SIGNIFICANT WEATHER AND/OR OBSTRUCTIONS TO VISIBILITY.

WIZ001-002-006>008-014>016-023>028-061800-
NORTHWEST WISCONSIN

CITY           SKY/WX    TMP DP  RH WIND       PRES   REMARKS
SUPERIOR ARPT  CLOUDY    28  21  77 SW7       30.01F WCI  20
ASHLAND        CLOUDY    27  21  78 S9        30.03F WCI  18
HAYWARD        CLOUDY    26  19  74 S12       30.04F WCI  16
SIREN          CLOUDY    28  22  76 S7        30.05F WCI  21
CUMBERLAND     CLOUDY    25  21  86 S12       30.06F FOG     WCI  14
RICE LAKE      CLOUDY    25  21  83 S9        30.09F WCI  16
CHETEK         CLOUDY    26  21  82 SW7       30.09F WCI  18
LADYSMITH      CLOUDY    27  22  84 SW10      30.09F WCI  17
EAU CLAIRE     CLOUDY    27  20  75 SW12      30.11F WCI  17
MENOMONIE      MOSUNNY   29  22  74 SW8       30.12F WCI  22
NEW RICHMOND   CLOUDY    27  22  83 S13       30.09S WCI  16
OSCEOLA        CLOUDY    28  23  83 S10       30.11S WCI  18
$$

WIZ003>005-009-010-017-018-061800-
NORTH CENTRAL WISCONSIN

CITY           SKY/WX    TMP DP  RH WIND       PRES   REMARKS
MANITOWISH WTR CLOUDY    23  20  87 SW9       30.03R WCI  13
ARBOR VITAE    CLOUDY    24  20  85 SW6       30.03S WCI  17
WOODRUFF       CLOUDY    24  20  85 SW6       30.03S WCI  17
RHINELANDER    CLOUDY    24  19  81 SW10      30.05R WCI  14
EAGLE RIVER    CLOUDY    23  18  83 SW12      30.03S WCI  11
LAND O LAKES   CLOUDY    24  19  80 SW6       30.03S WCI  17
PHILLIPS       CLOUDY    24  20  86 SW9       30.04S WCI  14
TOMAHAWK       CLOUDY    24  20  83 S5        30.07R WCI  18
MEDFORD        CLOUDY    24  22  89 SW7       30.07S FOG     WCI  16
MERRILL        CLOUDY    25  22  87 W8        30.09S FOG     WCI  16
$$

WIZ029-030-035-036-043>047-061800-
CENTRAL WISCONSIN

CITY           SKY/WX    TMP DP  RH WIND       PRES   REMARKS
WAUSAU         CLOUDY    27  21  78 W7        30.09R WCI  19
MOSINEE        CLOUDY    27  25  93 SW10      30.11S WCI  17
MARSHFIELD     CLOUDY    27  21  78 SW10      30.09S WCI  17
STEVENS POINT  CLOUDY    25  22  88 SW9       30.12F WCI  15
WAUPACA        CLOUDY    30  25  81 SW12      30.15S WCI  20
WAUTOMA        NOT AVBL
WISC RAPIDS    CLOUDY    27  22  81 SW12      30.14F WCI  17
CAMP DOUGLAS   PTSUNNY   28  28 100 SW13      30.15S WCI  18
$$

WIZ011>013-019>022-031-037>040-048>050-061800-
NORTHEAST WISCONSIN

CITY           SKY/WX    TMP DP  RH WIND       PRES   REMARKS
ANTIGO         CLOUDY    23  21  91 W9G17     30.07S WCI  13
SHAWANO        CLOUDY    29  23  77 W8        30.13S WCI  21
OCONTO         CLOUDY    27  23  84 W8        30.13F WCI  19
STURGEON BAY   CLOUDY    27  19  74 W12       30.15S WCI  16
GREEN BAY      CLOUDY    28  23  81 W8        30.14F WCI  20
MANITOWOC      NOT AVBL
APPLETON       CLOUDY    27  21  80 SW9       30.12F WCI  17
CLINTONVILLE   CLOUDY    28  23  80 W8        30.13F WCI  20
OSHKOSH        CLOUDY    29  23  78 VRB6      30.14F WCI  23
$$

WIZ032>034-041-042-053>061-061800-
SOUTHWEST WISCONSIN

CITY           SKY/WX    TMP DP  RH WIND       PRES   REMARKS
LA CROSSE      MOSUNNY   30  23  75 S9        30.17F WCI  22
SPARTA         CLOUDY    30  24  78 W8        30.17S WCI  22
VIROQUA        CLOUDY    29  25  84 W12       30.15R WCI  19
BOSCOBEL       CLOUDY    32  27  81 SW7       30.21R WCI  26
PRAIRIE DU CHI CLOUDY    31  25  77 SW8       30.21R WCI  24
PLATTEVILLE    CLOUDY    30  28  93 SW13      30.19F WCI  20
$$

WIZ056-057-062-063-064-067-068-061800-
SOUTH CENTRAL WISCONSIN

CITY           SKY/WX    TMP DP  RH WIND       PRES   REMARKS
REEDSBURG      CLOUDY    29  25  84 W10       30.16S WCI  19
BARABOO/DELLS  CLOUDY    28  24  83 SW12      30.16S WCI  18
LONE ROCK      NOT AVBL
MINERAL POINT  CLOUDY    32  28  86 SW10      30.17S WCI  24
MADISON        CLOUDY    30  24  78 VRB6      30.17F WCI  24
MIDDLETON      CLOUDY    32  26  80 W7        30.18S WCI  25
WATERTOWN      CLOUDY    30  26  84 SW8       30.18S WCI  22
MONROE         CLOUDY    30  28  93 SW15      30.18F WCI  19
JANESVILLE     CLOUDY    32  27  80 SW12      30.20F WCI  23
$$

WIZ051-052-058>065-066-070>072-061800-
SOUTHEAST WISCONSIN

CITY           SKY/WX    TMP DP  RH WIND       PRES   REMARKS
MILWAUKEE      CLOUDY    32  23  69 SW15      30.19F WCI  22
WAUKESHA       CLOUDY    27  23  86 SW8       30.19F FOG     WCI  18
MILWAUKEE/TIMM CLOUDY    30  21  69 W10G18    30.19F WCI  21
RACINE         CLOUDY    33  24  69 W9        30.21F WCI  25
BURLINGTON     CLOUDY    29  23  78 SW10      30.21S WCI  20
KENOSHA        CLOUDY    33  25  72 W14       30.20F WCI  23
FOND DU LAC    CLOUDY    30  23  75 W9        30.16F WCI  22
SHEBOYGAN      CLOUDY    30  23  75 W15       30.15F WCI  19
WEST BEND      CLOUDY    30  23  74 SW8       30.17S WCI  23
JUNEAU         CLOUDY    28  24  82 SW15      30.18S WCI  17
$$

LSZ147-162-061800-
LAKE SUPERIOR

STATION/POSITION TIME  TEMP    WIND        PRES    WAVE
                       AIR SEA DIR/SP/G            HT/PER
                 (UTC) (F)     (DEG/KT/KT) (MB)    (FT/S)
DEVILS ISLAND    1600   26     220/  9/ 11 1018.0F
SAXON HARBOR     1640   29                 1016.9F
$$

LMZ867-665-643>646-061800-
LAKE MICHIGAN

STATION/POSITION TIME  TEMP    WIND        PRES    WAVE
                       AIR SEA DIR/SP/G            HT/PER
                 (UTC) (F)     (DEG/KT/KT) (MB)    (FT/S)
CHAMBERS ISLAND  1600   27     220/  5/ 12 1020.3S
ALGOMA LAKESHORE 1511          270/  8/ 11   N/A
KEWAUNEE LAKESHO 1600   27     260/ 11/ 15 1020.1S
SHEBOYGAN LAKESH 1600   30     250/ 12/ 15 1022.7F
PORT WASHINGTON  1600   31     260/  9/ 16 1023.0
MILWAUKEE LAKESH 1610   31     250/  9/ 14   N/A
KENOSHA   LAKESH 1600   32     230/ 11/ 14 1023.4F
$$

TC  - TEMPERATURE IN CELSIUS
VSB - VISIBILITY IN STATUTE MILES
WCI - WIND CHILL INDEX
HX  - HEAT INDEX




USA.gov is the U.S. government's official web portal to all federal, state and local government web resources and services.